TimeEDT,TemperatureF,Dew PointF,Humidity,Sea Level PressureIn,VisibilityMPH,Wind Direction,Wind SpeedMPH,Gust SpeedMPH,PrecipitationIn,Events,Conditions,WindDirDegrees,DateUTC
12:53 AM,70.0,68.0,93,29.88,9.0,Calm,Calm,-,N/A,,Clear,0,2013-06-25 04:53:00
1:53 AM,70.0,66.9,90,29.88,10.0,West,5.8,-,N/A,,Partly Cloudy,270,2013-06-25 05:53:00
2:53 AM,69.1,66.0,90,29.86,10.0,WSW,6.9,-,N/A,,Clear,240,2013-06-25 06:53:00
3:53 AM,69.1,66.0,90,29.86,10.0,WSW,5.8,-,N/A,,Clear,250,2013-06-25 07:53:00
4:53 AM,69.1,64.9,87,29.87,10.0,West,8.1,-,N/A,,Clear,260,2013-06-25 08:53:00
5:53 AM,70.0,64.9,84,29.87,10.0,West,5.8,-,N/A,,Clear,270,2013-06-25 09:53:00
6:53 AM,71.1,64.9,81,29.87,10.0,West,6.9,-,N/A,,Clear,260,2013-06-25 10:53:00
7:53 AM,73.9,66.0,76,29.86,10.0,West,6.9,-,N/A,,Clear,260,2013-06-25 11:53:00
8:53 AM,78.1,66.0,66,29.86,10.0,West,9.2,-,N/A,,Clear,280,2013-06-25 12:53:00
9:53 AM,81.0,66.9,62,29.85,10.0,West,10.4,-,N/A,,Clear,270,2013-06-25 13:53:00
10:53 AM,84.0,68.0,58,29.85,10.0,West,8.1,-,N/A,,Clear,280,2013-06-25 14:53:00
11:53 AM,86.0,69.1,57,29.84,10.0,West,9.2,-,N/A,,Scattered Clouds,260,2013-06-25 15:53:00
12:53 PM,87.1,68.0,53,29.83,10.0,West,9.2,-,N/A,,Scattered Clouds,270,2013-06-25 16:53:00
1:53 PM,88.0,68.0,51,29.80,10.0,West,8.1,-,N/A,,Scattered Clouds,270,2013-06-25 17:53:00
2:53 PM,90.0,69.1,50,29.77,10.0,WSW,10.4,-,N/A,,Scattered Clouds,250,2013-06-25 18:53:00
3:53 PM,88.0,66.0,48,29.75,10.0,West,13.8,19.6,N/A,,Scattered Clouds,260,2013-06-25 19:53:00
4:53 PM,88.0,66.9,49,29.73,10.0,SW,9.2,-,N/A,,Scattered Clouds,230,2013-06-25 20:53:00
5:53 PM,86.0,66.0,51,29.73,10.0,SW,9.2,-,N/A,,Scattered Clouds,230,2013-06-25 21:53:00
6:53 PM,84.9,66.0,53,29.71,10.0,SW,9.2,-,N/A,,Mostly Cloudy,230,2013-06-25 22:53:00
7:53 PM,84.9,66.9,55,29.70,10.0,SSW,11.5,21.9,N/A,,Mostly Cloudy,210,2013-06-25 23:53:00
8:53 PM,82.9,66.9,58,29.70,10.0,SSW,11.5,-,N/A,,Clear,210,2013-06-26 00:53:00
9:53 PM,77.0,68.0,74,29.73,10.0,North,8.1,20.7,N/A,,Scattered Clouds,360,2013-06-26 01:53:00
10:53 PM,73.9,68.0,82,29.73,10.0,North,4.6,-,N/A,,Overcast,10,2013-06-26 02:53:00
11:53 PM,73.0,68.0,84,29.73,10.0,Calm,Calm,-,N/A,,Mostly Cloudy,0,2013-06-26 03:53:00